Location: Nitra
(0.0000°N, 18.0833°E)
Time: 08:20:09
(UTC+02:00)

Hubble Space Telescope - Pass Details

Date: 08 February 2023
Orbit: 527 x 530 km, 28.5° (Epoch: 27 March)

Event Time Altitude Azimuth Distance (km) Brightness Sun altitude
Rises 18:25:04 0° 261° (W) 2,648 6.9 -5.6°
Reaches altitude 10° 18:27:37 10° 275° (W) 1,756 4.8 -6.2°
Maximum altitude 18:30:57 25° 331° (NNW) 1,090 2.5 -7.0°
Drops below altitude 10° 18:34:18 10° 27° (NNE) 1,749 3.0 -7.8°
Enters shadow 18:35:43 - 36° (NE) 2,229 3.5 -8.2°
